This is the latest recevied weather packets stored in our database for station/object SR5MRF. If no packets are shown the sender has not sent any weather packets the latest 10 day(s).
| Time | Temp. | Humidity | Pressure | Rain* | Wind** | Luminosity | Snow |
|---|---|---|---|---|---|---|---|
| 1777621789 | 22.22° C | 33% | 1023.7 hPa | 0 mm | - | - | - |
| 1777621730 | 22.22° C | 33% | 1023.8 hPa | 0 mm | - | - | - |
| 1777621369 | 22.22° C | 34% | 1023.7 hPa | 0 mm | - | - | - |
| 1777621130 | 22.22° C | 34% | 1023.7 hPa | 0 mm | - | - | - |
| 1777620949 | 22.22° C | 34% | 1023.8 hPa | 0 mm | - | - | - |
| 1777620529 | 21.67° C | 35% | 1023.8 hPa | 0 mm | - | - | - |
| 1777620109 | 21.11° C | 36% | 1023.8 hPa | 0 mm | - | - | - |
| 1777619930 | 21.11° C | 36% | 1023.8 hPa | 0 mm | - | - | - |
| 1777619689 | 21.11° C | 36% | 1023.6 hPa | 0 mm | - | - | - |
| 1777619330 | 20.56° C | 37% | 1023.5 hPa | 0 mm | - | - | - |
| 1777619269 | 20.56° C | 37% | 1023.5 hPa | 0 mm | - | - | - |
| 1777618849 | 20° C | 38% | 1023.7 hPa | 0 mm | - | - | - |
| 1777618730 | 20° C | 38% | 1023.6 hPa | 0 mm | - | - | - |
| 1777618429 | 19.44° C | 39% | 1023.8 hPa | 0 mm | - | - | - |
| 1777618130 | 19.44° C | 39% | 1023.9 hPa | 0 mm | - | - | - |
| 1777618009 | 18.89° C | 39% | 1023.8 hPa | 0 mm | - | - | - |
| 1777617589 | 18.33° C | 40% | 1023.8 hPa | 0 mm | - | - | - |
| 1777617530 | 18.33° C | 40% | 1023.9 hPa | 0 mm | - | - | - |
| 1777617169 | 17.78° C | 41% | 1023.9 hPa | 0 mm | - | - | - |
| 1777616930 | 17.78° C | 41% | 1023.8 hPa | 0 mm | - | - | - |
| 1777616749 | 17.78° C | 42% | 1023.9 hPa | 0 mm | - | - | - |
| 1777616329 | 17.22° C | 43% | 1023.9 hPa | 0 mm | - | - | - |
| 1777615909 | 16.11° C | 44% | 1023.8 hPa | 0 mm | - | - | - |
| 1777615730 | 16.11° C | 45% | 1023.8 hPa | 0 mm | - | - | - |
| 1777615489 | 15.56° C | 46% | 1023.9 hPa | 0 mm | - | - | - |
* Rain latest hour (hover to see other rain measurements)
** Current wind speed in m/s (hover to see current wind gust speed)